Find USA 485

NORAD ID: 62756 Int'l Des: 2025-014 Owner: NROC Country: US operational
LEOCIRCULAR

Current View

Loading 3D Globe...

About USA 485

Description loading...

Upcoming Passes

Passes for default location (London). Set your location on the main map for personalized predictions.

Altitude History

Loading altitude history...

Two-Line Element Set

1 62756U 25014X 26151.17929199 .00306315 00000-0 18143-2 0 9997
2 62756 42.9991 214.1985 0001185 269.0597 91.0137 15.76397942 78082
Epoch: May 31, 2026 • Age: 11 hours

Current Status

Altitude 343.0 km
Velocity 7.71 km/s
Sub-Earth Point 40.01°N, 157.2°E
Launch Date Jan 21, 2025
Age 1.3 years
Type military

Technical Details

Classification Payload
Mass 800.00 kg
Dry Mass 750.00 kg
Total Mass 800.00 kg
Length 0.30 m
Diameter 4.10 m
Span 29.00 m
Shape Box + pan
Manufacturer SPXS
Bus Type Starshield
Phase Status In Orbit
Owner/State NROC/US

Most Searched